星链-4583 (STARLINK-4583 )

导读 | 星芒AI

STARLINK-4583 是 SpaceX Starlink 卫星互联网项目中的一颗低轨通信卫星。它属于 Starlink 群体部署的一部分,旨在为全球用户提供高速、低延迟的互联网服务。该卫星运行在近地轨道,配备先进通信设备,支持宽带数据传输。作为 Starlink 计划的组成部分,STARLINK-4583 有助于扩大网络覆盖范围,特别是在偏远和网络基础设施薄弱的地区。其发射和运行体现了 SpaceX 在推动全球互联网普及和航天技术应用方面的努力。

基本信息
目录编号:
53568
目录名称:
STARLINK-4583
国际标识:
2022-101AT
轨道中心:
EARTH
卫星名称:
星链-4583
卫星全名:
星链-4583 (STARLINK-4583 )
卫星状态:
在轨 (已飞行1220 天)
发射日期:
2022-08-19 UTC
国别 :
美国 (US)
星等 :
--
轨道信息
数据来源 国际轨道数据
星历时间: 2025-12-21T12:08:50+0800
4小时前
查看轨道信息
半长轴: 6917.926km
偏心率: 0.0001362
轨道倾角: 53.217°
近地点辐角 97.077°
升交点赤经 46.466°
平近点角 263.038°
近地点: 538.846km
远地点: 540.732km
周期: 95.438分钟
每日圈数: 15.088254
详细信息
固有亮度:
5
最大亮度:
2.5
卫星平台:
Starlink v1.5
覆盖范围:
全球
运营商:
太空探索技术公司
运营商所在国:
美国
制造商(研发单位):
太空探索技术公司
制造商所在国:
美国
使用方式:
暂无
卫星简介
星链(Starlink)计划是由太空探索技术公司(SpaceX)提出的一个巨型低轨卫星互联网星座项目,计划在2019年至2024年间在太空搭建由约1.2万颗卫星组成的“星链”网络,其中1584颗将部署在地球上空550千米处的近地轨道,并从2020年开始工作。该卫星仍在工作。
2D轨道图
3D轨道图
轨道高度分析图
轨道倾角分析图
轨道综合分析图
查看轨道综合分析图